Printer-friendly version

IAU Minor Planet Center

Minor Planet Center

MPEC 2006-R11 : 2000 PO30 = 2006 EY52

The following Minor Planet Electronic Circular may be linked-to from your own Web pages, but must not otherwise be redistributed electronically.


Read MPEC 2006-R10 Read MPEC 2006-R12


M.P.E.C. 2006-R11                                Issued 2006 Sept. 4, 17:10 UT

     The Minor Planet Electronic Circulars contain information on unusual
         minor planets and routine data on comets.  They are published
   on behalf of Commission 20 of the International Astronomical Union by the
          Minor Planet Center, Smithsonian Astrophysical Observatory,
                          Cambridge, MA 02138, U.S.A.

                  Supported in part by the Brinson Foundation
                  Supported in part by the TABASGO Foundation
             Prepared using the Tamkin Foundation Computer Network

                              MPC@CFA.HARVARD.EDU
          URL http://cfa-www.harvard.edu/iau/mpc.html  ISSN 1523-6714

                             2000 PO30 = 2006 EY52

                           Revision to MPEC 2000-R23

Orbital elements:
2000 PO30 = 2006 EY52                                    Earth MOID = 0.1200 AU
Id. S. Foglia
Epoch 2006 Sept. 22.0 TT = JDT 2454000.5                MPC
M 154.19184              (2000.0)            P               Q
n   0.39598572     Peri.  217.73722     +0.51673919     -0.85584566
a   1.8366076      Node   201.17787     +0.79991388     +0.49202448
e   0.3995397      Incl.    3.57980     +0.30515306     +0.15949956
P   2.49           H   19.3           G   0.15           U   3
Residuals in seconds of arc
000802 568  0.6-  0.9+    060305 691  0.1+  0.3-    060323 291  0.2+  0.0
000802 568  1.4+  0.9+    060305 691  0.4-  0.0     060323 291  0.1+  0.0
000802 568  0.2-  0.9+    060306 291  0.1+  0.1+    060323 291  0.2+  0.0
000802 568  0.2+  0.9+    060306 291  0.1-  0.2+    060323 291  0.3+  0.1-
000803 568  0.1-  0.2-    060306 291  0.0   0.2+    060324 291  0.0   0.3+
000803 568  0.2-  0.1-    060306 734  1.9-  0.6-    060324 291  0.3+  0.2-
000803 568  0.5-  0.0     060306 734  1.1+  0.4+    060324 291  0.6-  0.1+
000804 568  0.6+  1.2-    060306 734  0.8-  0.2+    060325 291  0.1+  0.3+
000804 568  0.3-  0.2+    060309 291  0.2+  0.1+    060325 291  0.4-  0.1+
000804 568  0.3-  0.6-    060309 291  0.3+  0.1+    060325 291  0.1-  0.3+
000804 568  0.3-  0.3-    060309 291  0.1+  0.1+    060402 G96  0.2-  0.2-
000804 568  0.2-  0.5-    060309 691  0.4+  0.1-    060402 G96  0.2-  0.2-
000807 568  0.1+  0.3-    060309 691  0.3+  0.2-    060402 G96  0.5-  0.2-
000807 568  0.2+  0.5-    060309 691  0.4+  0.3+    060402 G96  0.8-  0.2-
000807 568  0.1+  0.3-    060323 G96  0.6-  0.5-    060407 291  0.0   0.0
000807 568  0.2+  0.4-    060323 G96  0.3+  0.8-    060407 291  0.1-  0.4-
000905 568  0.0   0.1-    060323 G96  0.6-  0.2+    060407 291  0.1+  0.0
000905 568  0.2-  0.1-    060323 291  0.0   0.1-
060305 691  0.4-  0.4-    060323 291  0.2-  0.1-

Gareth V. Williams           (C) Copyright 2006 MPC           M.P.E.C. 2006-R11

Read MPEC 2006-R10 Read MPEC 2006-R12


Our Web policy. Index to the CBAT/MPC/ICQ pages.


Valid HTML 4.01!